Tracking 30995 objects as of 5-Jul-2025
HD Live streaming from Space Station
objects crossing your sky now

STARLINK-30602

Track STARLINK-30602 now!
10-day predictions
STARLINK-30602 is classified as:


NORAD ID: 58081
Int'l Code: 2023-160G
Perigee: 565.3 km
Apogee: 567.1 km
Inclination: 43.0 °
Period: 95.8 minutes
Semi major axis: 6937 km
RCS: Unknown
Launch date: October 18, 2023
Source: United States (US)
Launch site: AIR FORCE EASTERN TEST RANGE (AFETR)
Your satellite tracking list
Your tracking list is empty




NASA's NSSDC Master Catalog

Two Line Element Set (TLE):
1 58081U 23160G   25186.47359322  .00000248  00000-0  33459-4 0  9993
2 58081  43.0048 343.2516 0001304 264.7344  95.3349 15.02535519 95738
Source of the keplerian elements: AFSPC